PROMETHEUS 2-9 (44366 NORAD) Tracking and Keplerian Element Data

This shows tracking and keplerian element data for the satellite.

Feedback or suggestion? Click here.




ElementValue
Catalog44366
NamePROMETHEUS 2-9
Epoch Orbit280
Epoch Day198.40638608
Epoch Year2019
RAAN188.3881
Inclination45.0131
Eccentricity0.0007857
Argument of Perigee17.3499
Mean Anonmoly342.7677
Mean Motion15.37334002
Decay Rate-3.36E-06
L11 44366U 19037B 19198.40638608 -.00000336 00000-0 00000+0 0 9998
L22 44366 45.0131 188.3881 0007857 17.3499 342.7677 15.37334002 2800

Live tracking and technical data element details for PROMETHEUS 2-9 (NORAD 44366). PROMETHEUS 2-9 can be tracked NOW for your location showing map with azimuth and elevation plus other details from your city location.

Track the satellite on the map from your city or location and see movement details for azimuth, elevation, latitude, longitude, range, height, and movement on the map or in text.







IsCatalogInMostPopularTable: catalog: 44366, numindb: 6
Update: records affected: 1



GetName: 44366 PROMETHEUS 2-9

Hit Count: updated at: Fri, 19 Jul 2019 08:04:19 GMT